TimeAKDT,TemperatureF,Dew PointF,Humidity,Sea Level PressureIn,VisibilityMPH,Wind Direction,Wind SpeedMPH,Gust SpeedMPH,PrecipitationIn,Events,Conditions,WindDirDegrees,DateUTC
12:53 AM,27.0,24.1,89,30.04,10.0,Calm,Calm,-,N/A,,Overcast,0,2013-04-02 08:53:00
1:53 AM,28.0,26.1,92,30.05,10.0,Calm,Calm,-,N/A,,Overcast,0,2013-04-02 09:53:00
2:53 AM,27.0,25.0,92,30.06,10.0,Calm,Calm,-,N/A,,Overcast,0,2013-04-02 10:53:00
3:53 AM,26.1,24.1,92,30.06,10.0,Calm,Calm,-,N/A,,Partly Cloudy,0,2013-04-02 11:53:00
4:53 AM,21.9,21.0,96,30.07,6.0,Calm,Calm,-,N/A,,Clear,0,2013-04-02 12:53:00
4:59 AM,21.2,21.2,100,30.06,1.5,Calm,Calm,-,N/A,,Clear,0,2013-04-02 12:59:00
5:09 AM,21.2,19.4,93,30.07,0.5,Calm,Calm,-,N/A,Fog,Light Freezing Fog,0,2013-04-02 13:09:00
5:22 AM,19.4,17.6,93,30.07,0.5,Calm,Calm,-,N/A,Fog,Light Freezing Fog,0,2013-04-02 13:22:00
5:53 AM,18.0,17.1,96,30.08,0.8,Calm,Calm,-,N/A,,Mist,0,2013-04-02 13:53:00
6:42 AM,17.6,15.8,93,30.08,2.0,NNE,3.5,-,N/A,,Mostly Cloudy,20,2013-04-02 14:42:00
6:51 AM,15.8,15.8,100,30.08,9.0,North,3.5,-,N/A,,Partly Cloudy,10,2013-04-02 14:51:00
6:53 AM,16.0,14.0,92,30.10,10.0,North,3.5,-,N/A,,Partly Cloudy,10,2013-04-02 14:53:00
7:53 AM,17.1,15.1,92,30.11,10.0,Calm,Calm,-,N/A,,Clear,0,2013-04-02 15:53:00
8:53 AM,19.0,16.0,88,30.12,10.0,Calm,Calm,-,N/A,,Clear,0,2013-04-02 16:53:00
9:53 AM,26.1,21.9,84,30.13,10.0,Calm,Calm,-,N/A,,Clear,0,2013-04-02 17:53:00
10:53 AM,32.0,21.0,64,30.12,10.0,NNE,8.1,-,N/A,,Clear,30,2013-04-02 18:53:00
11:53 AM,34.0,21.0,59,30.13,10.0,NNE,3.5,-,N/A,,Clear,20,2013-04-02 19:53:00
12:53 PM,36.0,21.0,55,30.14,10.0,North,6.9,-,N/A,,Clear,10,2013-04-02 20:53:00
1:53 PM,36.0,23.0,59,30.13,10.0,North,6.9,-,N/A,,Clear,360,2013-04-02 21:53:00
2:53 PM,37.0,23.0,57,30.14,10.0,North,5.8,-,N/A,,Clear,360,2013-04-02 22:53:00
3:53 PM,37.9,21.9,53,30.14,10.0,NW,9.2,-,N/A,,Clear,320,2013-04-02 23:53:00
4:53 PM,37.9,21.0,51,30.13,10.0,NNW,5.8,-,N/A,,Clear,340,2013-04-03 00:53:00
5:53 PM,39.9,21.0,47,30.13,10.0,North,4.6,-,N/A,,Mostly Cloudy,360,2013-04-03 01:53:00
6:53 PM,37.9,24.1,57,30.12,10.0,North,5.8,-,N/A,,Overcast,360,2013-04-03 02:53:00
7:53 PM,35.1,26.1,70,30.12,10.0,North,4.6,-,N/A,,Overcast,10,2013-04-03 03:53:00
8:53 PM,32.0,24.1,73,30.13,10.0,Calm,Calm,-,N/A,,Overcast,0,2013-04-03 04:53:00
9:53 PM,32.0,21.9,66,30.14,10.0,NNE,3.5,-,N/A,,Overcast,20,2013-04-03 05:53:00
10:53 PM,30.9,23.0,72,30.14,10.0,NNE,4.6,-,N/A,,Overcast,20,2013-04-03 06:53:00
11:53 PM,30.9,23.0,72,30.16,10.0,Calm,Calm,-,N/A,,Overcast,0,2013-04-03 07:53:00